Fremont, NE

7:24 AM CDT on April 19, 2018 (GMT -0500)
Fremont Municipal

Weather History for KFET - March, 2014

Change the Weather History Date:

Tuesday, March 11, 2014

  Actual Average Record
Temperature  
Mean Temperature 43 °F -  
Max Temperature 53 °F 50 °F 76 °F (1972)
Min Temperature 33 °F 28 °F -5 °F (1998)
Degree Days  
Heating Degree Days 22    
Moisture  
Dew Point 36 °F    
Average Humidity 78    
Maximum Humidity 100    
Minimum Humidity 55    
Precipitation  
Precipitation 0.09 in - - ()
Sea Level Pressure  
Sea Level Pressure 29.74 in    
Wind  
Wind Speed 10 mph (NNE)    
Max Wind Speed 30 mph    
Max Gust Speed 40 mph    
Visibility 9 miles    
Events Snow    
Averages and records for this station are not official NWS values.
T = Trace of Precipitation, MM = Missing Value Source: NWS Daily Summary

Daily Weather History Graph

Daily Weather History Graph

Search for Another Location

Airport or City:

Astronomy

Mar. 11, 2014 Rise Set
Actual Time 7:44 AM CDT 7:28 PM CDT
Civil Twilight 7:16 AM CDT 7:55 PM CDT
Nautical Twilight 6:44 AM CDT 8:28 PM CDT
Astronomical Twilight 6:12 AM CDT 9:00 PM CDT
Moon 3:03 PM CDT (3/11) 4:41 AM CDT (3/11)
Length of Visible Light 12h 39m
Length of Day
11h 43m
Waxing Gibbous, 78% of the Moon is Illuminated
Mar 11
Waxing Gibbous
Mar 16
Full
Mar 23
Last Quarter
Mar 30
New
Apr 7
First Quarter

Hourly Weather History & Observations

Time (CDT) Temp. Windchill Dew Point Humidity Pressure Visibility Wind Dir Wind Speed Gust Speed Precip Events Conditions
12:15 AM 50.7 °F - 36.9 °F 59% 29.58 in 10.0 mi SE 6.9 mph - N/A   Clear
12:35 AM 51.3 °F - 37.4 °F 59% 29.57 in 10.0 mi SSE 9.2 mph - N/A   Clear
12:55 AM 53.4 °F - 37.4 °F 55% 29.57 in 10.0 mi SSE 6.9 mph - N/A   Clear
1:15 AM 52.9 °F - 37.4 °F 56% 29.56 in 10.0 mi SSE 6.9 mph - N/A   Clear
1:35 AM 52.0 °F - 37.4 °F 58% 29.54 in 10.0 mi SE 9.2 mph - N/A   Clear
1:55 AM 51.8 °F - 37.4 °F 58% 29.54 in 10.0 mi SE 8.1 mph - N/A   Clear
2:15 AM 50.9 °F - 37.0 °F 59% 29.54 in 10.0 mi SE 5.8 mph - N/A   Clear
2:35 AM 50.0 °F - 36.7 °F 60% 29.53 in 10.0 mi ESE 5.8 mph - N/A   Clear
2:55 AM 51.1 °F - 36.7 °F 58% 29.53 in 10.0 mi Calm Calm - N/A   Clear
3:15 AM 50.0 °F - 36.9 °F 61% 29.52 in 10.0 mi Calm Calm - N/A   Clear
3:35 AM 47.3 °F - 36.0 °F 65% 29.51 in 10.0 mi Calm Calm - N/A   Clear
3:55 AM 40.3 °F - 32.7 °F 74% 29.50 in 10.0 mi Calm Calm - N/A   Clear
4:15 AM 43.2 °F - 35.1 °F 73% 29.49 in 10.0 mi Calm Calm - N/A   Clear
4:35 AM 40.5 °F - 32.7 °F 74% 29.48 in 10.0 mi Calm Calm - N/A   Clear
4:55 AM 43.0 °F - 34.5 °F 72% 29.48 in 10.0 mi Calm Calm - N/A   Clear
5:15 AM 45.5 °F - 35.8 °F 69% 29.48 in 7.0 mi Calm Calm - N/A   Clear
5:35 AM 45.3 °F 44.0 °F 36.0 °F 70% 29.49 in 5.0 mi NE 3.5 mph - N/A   Haze
5:55 AM 45.5 °F 42.5 °F 36.5 °F 71% 29.49 in 7.0 mi NE 5.8 mph - N/A   Clear
6:15 AM 44.6 °F 42.2 °F 36.5 °F 73% 29.49 in 7.0 mi NNE 4.6 mph - N/A   Clear
6:35 AM 43.5 °F 40.9 °F 36.5 °F 76% 29.50 in 7.0 mi NNE 4.6 mph - N/A   Clear
6:55 AM 42.8 °F 40.1 °F 36.9 °F 80% 29.50 in 7.0 mi NE 4.6 mph - N/A   Clear
7:15 AM 43.2 °F 37.4 °F 37.9 °F 82% 29.49 in 2.5 mi NE 10.4 mph - N/A   Haze
7:35 AM 43.0 °F 38.2 °F 38.3 °F 84% 29.51 in 5.0 mi NE 8.1 mph 16.1 mph N/A   Haze
7:55 AM 42.8 °F 39.3 °F 38.3 °F 84% 29.52 in 10.0 mi NE 5.8 mph - N/A   Clear
8:15 AM 42.8 °F 37.5 °F 37.9 °F 83% 29.52 in 10.0 mi NE 9.2 mph 20.7 mph N/A   Clear
8:35 AM 42.8 °F 37.5 °F 37.6 °F 82% 29.55 in 10.0 mi NNE 9.2 mph 16.1 mph N/A   Clear
8:55 AM 42.8 °F 36.6 °F 37.2 °F 81% 29.58 in 10.0 mi North 11.5 mph - N/A   Clear
9:15 AM 43.2 °F 37.0 °F 36.5 °F 77% 29.60 in 10.0 mi North 11.5 mph 19.6 mph N/A   Clear
9:35 AM 43.7 °F 36.6 °F 33.3 °F 67% 29.62 in 10.0 mi NNE 15.0 mph 25.3 mph N/A   Clear
9:55 AM 44.1 °F 37.4 °F 32.0 °F 63% 29.63 in 10.0 mi NNE 13.8 mph 27.6 mph N/A   Clear
10:15 AM 43.7 °F 35.0 °F 34.0 °F 69% 29.62 in 10.0 mi NNE 21.9 mph 32.2 mph N/A   Clear
10:35 AM 43.3 °F 34.0 °F 34.2 °F 70% 29.64 in 10.0 mi NNE 24.2 mph 36.8 mph N/A   Clear
10:55 AM 43.3 °F 34.5 °F 34.9 °F 72% 29.67 in 10.0 mi NNE 21.9 mph 31.1 mph N/A   Clear
11:15 AM 44.2 °F 34.8 °F 35.8 °F 72% 29.68 in 10.0 mi NNE 26.5 mph 34.5 mph N/A   Clear
11:35 AM 45.3 °F 36.7 °F 36.7 °F 72% 29.67 in 10.0 mi NNE 24.2 mph 39.1 mph N/A   Clear
11:55 AM 45.5 °F 36.0 °F 36.9 °F 72% 29.68 in 10.0 mi NE 29.9 mph 40.3 mph N/A   Scattered Clouds
12:15 PM 45.5 °F 37.1 °F 37.4 °F 73% 29.71 in 10.0 mi NNE 23.0 mph 34.5 mph N/A   Scattered Clouds
12:35 PM 45.3 °F 37.1 °F 37.4 °F 74% 29.73 in 10.0 mi NNE 21.9 mph 32.2 mph N/A   Scattered Clouds
12:55 PM 45.7 °F 38.6 °F 37.4 °F 73% 29.74 in 10.0 mi NNE 17.3 mph 34.5 mph N/A   Scattered Clouds
1:15 PM 45.5 °F 37.8 °F 37.4 °F 73% 29.76 in 10.0 mi NNE 19.6 mph 32.2 mph N/A   Mostly Cloudy
1:35 PM 44.8 °F 37.4 °F 36.9 °F 74% 29.74 in 10.0 mi NNE 17.3 mph 32.2 mph N/A   Mostly Cloudy
1:55 PM 44.2 °F 35.0 °F 36.7 °F 75% 29.76 in 10.0 mi NNE 25.3 mph 35.7 mph N/A   Mostly Cloudy
2:15 PM 44.2 °F 35.9 °F 36.3 °F 74% 29.77 in 10.0 mi NNE 20.7 mph 29.9 mph N/A   Mostly Cloudy
2:35 PM 44.6 °F 36.9 °F 36.0 °F 72% 29.77 in 10.0 mi NNE 18.4 mph 28.8 mph N/A   Mostly Cloudy
2:55 PM 44.8 °F 36.2 °F 35.6 °F 70% 29.79 in 10.0 mi NNE 23.0 mph 33.4 mph N/A   Mostly Cloudy
3:15 PM 45.5 °F 38.6 °F 36.1 °F 70% 29.80 in 10.0 mi NNE 16.1 mph 25.3 mph N/A   Mostly Cloudy
3:35 PM 45.0 °F 40.1 °F 36.0 °F 71% 29.82 in 10.0 mi NNE 9.2 mph 25.3 mph 0.02 in   Mostly Cloudy
3:55 PM 44.6 °F 36.4 °F 35.6 °F 71% 29.84 in 10.0 mi North 20.7 mph 28.8 mph 0.02 in   Overcast
4:15 PM 42.8 °F 33.5 °F 35.6 °F 76% 29.86 in 10.0 mi North 23.0 mph 32.2 mph N/A   Overcast
4:35 PM 40.8 °F 32.0 °F 36.0 °F 83% 29.87 in 10.0 mi North 18.4 mph 28.8 mph N/A   Light Drizzle
4:55 PM 38.5 °F 29.9 °F 36.5 °F 93% 29.90 in 10.0 mi North 15.0 mph 28.8 mph N/A   Light Drizzle
5:15 PM 34.7 °F 25.5 °F 34.7 °F 100% 29.92 in 3.0 mi North 13.8 mph 25.3 mph N/A Snow Light Snow
5:35 PM 33.8 °F 24.3 °F 33.8 °F 100% 29.94 in 1.5 mi North 13.8 mph 25.3 mph 0.02 in Snow Light Snow
5:55 PM 33.8 °F 24.8 °F 33.8 °F 100% 29.94 in 2.0 mi North 12.7 mph 19.6 mph 0.03 in Snow Light Snow
6:15 PM 33.8 °F 26.4 °F 33.8 °F 100% 29.96 in 1.8 mi North 9.2 mph 18.4 mph 0.01 in Snow Light Snow
6:35 PM 33.8 °F 26.4 °F 33.8 °F 100% 29.99 in 3.0 mi North 9.2 mph 18.4 mph 0.03 in Snow Light Snow
6:55 PM 33.8 °F 25.8 °F 33.8 °F 100% 29.99 in 3.0 mi North 10.4 mph 18.4 mph 0.04 in Snow Light Snow
7:15 PM 34.0 °F 28.0 °F 34.0 °F 100% 30.01 in 10.0 mi North 6.9 mph - N/A   Mostly Cloudy
7:35 PM 34.2 °F 29.0 °F 34.2 °F 100% 30.01 in 10.0 mi North 5.8 mph - N/A   Scattered Clouds
7:55 PM 34.2 °F 28.2 °F 34.2 °F 100% 30.02 in 10.0 mi NNW 6.9 mph - N/A   Clear
8:15 PM 34.9 °F 27.1 °F 34.9 °F 100% 30.02 in 10.0 mi NNW 10.4 mph - N/A   Scattered Clouds
8:35 PM 36.0 °F 28.0 °F 35.2 °F 97% 30.02 in 10.0 mi NNW 11.5 mph 18.4 mph N/A   Clear
8:55 PM 36.5 °F 28.7 °F 35.2 °F 95% 30.03 in 10.0 mi NNW 11.5 mph 17.3 mph N/A   Clear
9:15 PM 36.5 °F 28.7 °F 35.2 °F 95% 30.04 in 10.0 mi NNW 11.5 mph - N/A   Clear
9:35 PM 36.1 °F 28.7 °F 35.1 °F 96% 30.04 in 10.0 mi NNW 10.4 mph - N/A   Clear
9:55 PM 36.9 °F 28.2 °F 35.2 °F 94% 30.05 in 10.0 mi NNW 13.8 mph 19.6 mph N/A   Clear
10:15 PM 37.4 °F 28.9 °F 34.7 °F 90% 30.07 in 10.0 mi NNW 13.8 mph 20.7 mph N/A   Clear
10:35 PM 37.4 °F 28.5 °F 33.3 °F 85% 30.07 in 10.0 mi NNW 15.0 mph 20.7 mph N/A   Clear
10:55 PM 36.7 °F 27.6 °F 32.7 °F 86% 30.08 in 10.0 mi NNW 15.0 mph 23.0 mph N/A   Clear
11:15 PM 36.1 °F 27.3 °F 32.0 °F 85% 30.09 in 10.0 mi NNW 13.8 mph 20.7 mph N/A   Clear
11:35 PM 35.6 °F 26.2 °F 31.5 °F 85% 30.10 in 10.0 mi NNW 15.0 mph 24.2 mph N/A   Clear
11:55 PM 34.9 °F 25.7 °F 31.6 °F 88% 30.10 in 10.0 mi NNW 13.8 mph 18.4 mph N/A   Clear